EHI
0 0 0 0 0 0 0 0 0 0 0 0 0 0 0 0 0 0 0 0 0 0 0 0 1 1 1 0 0 1 2 2 3 3 2 1 0 0 0 0 0 0 0
0 0 0 0 0 0 0 0 0 0 0 0 0 0 0 0 0 0 0 0 0 0 0 0 0 0 0 0 0 0 1 1 2 2 2 2 1 0 0 0 0 0 0
0 0 0 0 0 0 0 0 0 0 0 0 0 0 0 0 0 0 0 0 0 0 0 0 0 0 0 0 0 0 0 0 1 1 2 2 1 0 0 0 0 0 0
0 0 0 0 0 0 0 0 0 0 0 0 0 0 0 0 0 0 0 0 0 0 0 0 0 0 0 0 0 0 0 0 0 0 1 1 1 0 0 0 0 0 0
0 0 0 0 0 0 0 0 0 0 0 0 0 0 0 0 0 0 0 0 0 0 0 0 0 0 0 0 0 0 0 0 0 0 0 0 0 0 0 0 0 0 0
1 1 0 0 0 0 0 0 0 0 0 0 0 0 0 0 0 0 0 0 0 0 0 0 0 0 0 0 0 0 0 0 0 0 0 0 0 0 0 0 0 0 0
2 2 1 0 0 0 0 0 0 0 0 0 0 0 0 0 0 0 0 0 0 0 0 0 0 0 0 0 0 0 0 0 0 0 1 1 0 0 0 0 0 0 0
3 3 2 1 0 0 0 0 0 0 0 0 0 0 0 0 0 0 0 0 0 0 0 0 0 0 0 0 0 0 0 0 0 1 2 1 0 0 0 0 0 0 0
3 3 2 1 0 0 0 0 0 0 0 0 0 0 0 0 0 0 0 0 0 0 0 0 0 0 0 0 0 0 0 0 0 1 2 2 1 1 1 0 0 0 0
3 3 2 1 0 0 0 0 0 0 0 0 0 0 0 0 0 0 0 0 0 0 0 0 1 1 0 0 0 0 0 0 1 2 3 3 2 2 1 0 0 0 0
3 3 2 1 0 0 0 0 0 0 0 0 0 0 0 0 0 0 0 0 0 0 0 0 1 1 0 0 0 0 0 0 2 3 3 3 2 1 1 0 0 0 0
3 3 1 0 0 0 0 0 0 0 0 0 0 0 0 0 0 0 0 0 0 0 0 0 1 1 0 0 0 0 0 0 1 2 2 1 1 0 0 0 0 0 0
2 2 1 0 0 0 0 0 0 0 0 0 0 0 0 0 0 0 0 0 0 0 0 0 0 0 0 0 0 0 0 0 0 1 1 0 0 0 0 0 0 0 0
1 1 0 0 0 0 0 0 0 0 0 0 0 0 0 0 0 0 0 0 0 0 0 0 0 0 0 0 0 0 0 0 0 0 0 0 0 0 0 0 0 0 0
0 0 0 0 0 0 0 0 0 0 0 0 0 0 0 0 0 0 0 0 0 0 0 0 0 0 0 0 0 0 0 0 0 0 0 0 0 0 0 0 0 0 0
0 0 0 0 0 0 0 0 0 0 0 0 0 0 0 0 0 0 0 0 0 0 0 0 0 0 0 0 0 0 0 0 0 0 0 0 0 0 0 0 0 0 0
0 0 0 0 0 0 0 0 0 0 0 0 0 0 0 0 0 0 0 0 0 0 0 0 0 0 0 0 0 0 0 0 0 0 0 0 0 0 0 0 0 0 0
0 0 0 0 0 0 0 0 0 0 0 0 0 0 0 0 0 0 0 0 0 0 0 0 0 0 0 0 0 0 0 1 1 0 0 0 0 0 0 0 0 0 0
0 0 0 0 0 0 0 0 0 0 0 0 0 0 0 0 0 0 0 0 0 0 0 0 0 0 0 0 0 0 1 1 1 0 0 0 0 0 0 0 0 0 0
0 0 0 0 0 0 0 0 0 0 0 0 0 0 0 0 0 0 0 0 0 0 0 0 0 0 0 0 0 0 1 1 1 0 0 0 0 0 0 0 0 0 0
0 0 0 0 0 0 0 0 0 0 0 0 0 0 0 0 0 0 0 0 0 0 0 0 0 0 0 0 0 0 0 0 0 0 0 0 0 0 0 0 0 0 0
0 0 0 0 0 0 0 0 0 0 0 0 0 0 0 0 0 0 0 0 0 0 0 0 0 0 0 0 0 0 0 0 0 0 0 0 0 0 0 0 0 0 0
0 0 0 0 0 0 0 0 0 0 0 0 0 0 0 0 0 0 0 0 0 0 0 0 0 0 0 0 0 0 0 0 0 0 0 0 0 0 0 0 0 0 0
0 0 0 0 0 0 0 0 0 0 0 0 0 0 0 0 0 0 0 0 0 0 0 0 0 0 0 0 0 0 0 0 0 0 0 0 0 0 0 0 0 0 0
0 0 0 0 0 0 0 0 0 0 0 0 0 0 0 0 0 0 0 0 0 0 0 0 0 0 0 0 0 0 0 0 0 0 0 0 0 0 0 0 0 0 0
0 0 0 0 0 0 0 0 0 0 0 0 0 0 0 0 0 0 0 0 0 0 0 0 0 0 0 0 0 0 0 0 0 0 1 1 1 0 0 0 0 0 0
Wind_Speed
2 2 2 2 3 2 2 2 2 4 3 4 4 4 5 5 4 4 4 8 9 8 7 7 7 7 7 6 6 6 6 6 6 5 5 5 4 4 4 3 2 3 3
2 2 3 3 3 3 3 2 3 3 2 2 3 4 4 4 4 4 4 5 7 8 7 7 7 7 7 7 6 6 6 6 5 5 4 4 4 4 3 2 2 3 4
2 2 2 2 2 2 2 2 3 2 2 2 2 3 3 4 3 4 4 3 3 6 7 8 7 7 7 7 6 6 6 5 5 4 4 4 4 3 4 4 3 4 5
3 2 2 2 2 2 2 2 2 2 2 2 2 2 2 2 3 3 2 3 3 3 5 8 7 7 7 7 6 6 5 5 5 4 4 4 4 4 4 5 5 5 4
2 2 2 1 2 1 2 2 2 2 2 2 1 1 1 2 2 2 3 3 3 2 3 4 5 7 7 7 7 6 5 5 5 4 4 4 4 5 5 4 4 3 4
1 1 1 1 1 1 1 2 2 2 2 1 1 1 1 1 1 2 2 2 3 3 3 2 2 4 6 7 8 7 6 6 5 5 5 5 4 4 5 4 4 3 4
1 1 0 1 1 1 1 1 1 2 1 1 0 1 1 1 1 1 2 2 2 3 2 2 2 2 2 5 6 7 7 6 6 5 5 5 4 4 4 4 4 4 4
1 1 1 1 1 1 1 1 1 1 1 1 1 1 1 2 1 1 1 2 2 2 2 2 2 2 2 2 5 6 6 6 6 5 5 5 5 5 4 4 5 5 5
1 0 0 0 0 1 1 1 1 0 0 1 2 3 2 1 1 1 1 1 2 2 1 2 2 2 2 2 3 5 6 5 5 5 4 4 4 5 5 4 4 5 5
1 1 1 0 0 0 1 1 1 0 1 0 0 2 2 3 2 1 1 1 2 2 2 1 2 2 2 2 3 6 6 5 4 4 4 4 4 4 4 4 4 4 4
2 1 1 1 1 1 1 1 1 1 1 1 1 1 1 2 3 2 2 1 1 1 2 2 1 1 2 2 2 5 5 5 4 4 4 4 3 3 3 3 3 4 3
2 2 2 2 1 1 1 1 2 1 1 1 1 1 1 2 2 2 2 2 1 1 1 1 1 1 1 1 2 4 4 4 4 4 4 4 4 3 3 3 3 3 3
2 2 2 2 1 1 1 2 2 2 2 2 2 1 1 2 2 3 3 3 2 1 1 1 0 0 1 1 2 3 2 3 3 4 4 4 3 2 2 1 2 2 2
2 2 3 2 2 2 2 2 2 2 2 2 2 2 2 2 2 2 3 3 3 2 2 1 1 0 1 1 3 3 1 3 3 3 2 3 2 2 2 1 1 1 1
2 2 3 3 2 2 2 2 2 2 1 2 2 2 2 1 2 2 3 3 4 4 3 1 1 0 0 1 1 2 1 3 2 2 2 2 2 1 1 1 1 1 1
3 3 3 3 2 2 3 3 2 2 2 2 1 2 2 2 2 2 3 3 3 4 4 2 1 1 1 1 0 2 1 1 1 1 1 1 2 2 1 1 0 1 1
4 4 3 3 3 3 3 3 3 3 3 3 2 3 3 3 2 2 3 3 3 4 4 3 2 2 3 3 1 2 2 3 2 2 1 1 1 2 2 2 1 1 1
4 4 4 3 3 3 3 4 3 4 4 4 3 3 3 2 3 3 3 3 3 4 4 4 3 2 3 3 3 3 3 2 2 2 2 2 2 2 3 3 3 3 2
5 5 5 5 4 4 4 4 4 5 5 4 4 4 4 4 4 3 4 4 3 3 4 4 3 2 3 2 3 4 4 2 3 2 4 4 3 3 4 4 4 4 3
6 5 5 5 5 5 5 5 5 5 5 4 4 4 4 5 4 4 4 4 4 4 4 4 3 3 3 3 3 3 3 2 3 2 2 3 4 5 6 5 5 4 4
6 6 6 6 6 5 5 5 5 5 5 5 5 5 4 4 5 4 4 4 4 4 3 4 4 3 3 3 3 3 3 2 3 2 3 3 3 4 5 6 6 5 5
6 6 6 6 6 5 4 4 6 6 6 6 6 5 5 5 5 5 5 5 5 5 4 4 4 5 5 4 3 3 3 3 3 2 3 3 3 3 3 3 3 5 5
6 6 6 6 7 6 5 6 6 6 6 6 6 5 4 4 5 5 5 6 6 6 6 6 6 6 5 4 4 4 4 5 4 2 3 4 3 4 3 2 4 5 5
5 6 6 6 6 5 5 5 6 8 7 7 6 6 6 5 4 5 5 5 6 5 6 7 7 6 5 4 4 5 5 5 4 2 3 4 3 4 3 3 5 5 5
4 5 5 6 6 5 4 4 6 6 6 7 6 6 6 5 2 4 6 6 6 4 4 5 6 5 5 4 3 3 3 4 4 3 3 3 3 3 3 4 3 5 5
4 4 4 4 5 5 3 3 6 5 6 5 5 5 4 4 2 3 5 5 6 5 4 4 5 5 5 4 5 6 5 4 4 3 3 3 3 3 3 3 2 2 4
Wind_Direction
70 74 70 63 59 60 66 51 50 57 47 44 43 41 48 49 46 48 65 55 40 38 42 45 47 46 49 50 51 51 50 49 52 54 58 62 62 66 63 60 74 98 103
84 78 75 66 57 48 44 43 51 55 53 49 42 45 40 39 41 52 49 71 57 39 37 40 43 43 43 44 45 49 51 47 47 52 51 51 56 62 56 49 76 113 111
90 86 74 77 67 55 47 39 46 42 51 55 51 46 43 31 22 40 45 36 63 67 46 37 36 37 38 40 43 47 46 42 43 53 49 46 52 56 51 58 84 104 106
88 79 70 67 66 57 48 48 33 37 45 43 37 40 40 43 26 31 43 47 34 38 70 47 34 33 35 39 41 43 44 43 42 50 49 48 50 51 59 62 78 93 102
94 96 71 51 61 55 45 47 44 23 38 40 34 26 19 37 35 25 34 35 37 27 54 81 60 42 36 36 36 39 42 44 44 49 52 57 56 53 56 62 76 96 106
98 104 115 97 73 69 53 54 71 51 33 23 26 31 36 61 54 32 21 26 18 27 31 38 71 81 57 41 36 38 40 42 47 55 56 58 60 59 58 58 70 93 103
116 105 127 103 72 68 47 46 67 83 65 7 299 127 145 139 60 59 13 6 37 27 21 44 23 22 76 71 43 33 34 36 41 47 52 52 55 62 64 63 70 84 94
132 150 174 150 135 111 80 53 69 30 70 354 321 282 211 162 122 74 18 359 19 38 27 28 38 43 27 34 60 38 28 33 37 42 51 55 55 60 64 71 74 88 93
115 158 171 182 162 181 112 69 86 56 12 44 354 324 315 346 344 132 44 8 20 15 34 25 20 30 32 27 40 55 30 25 32 39 49 57 59 64 67 69 73 79 88
155 208 213 228 204 169 149 170 108 89 294 359 57 337 338 340 294 275 179 37 24 16 17 22 15 15 25 34 48 46 32 19 27 37 45 58 64 69 70 66 68 71 81
182 198 210 213 227 237 243 234 226 248 271 295 314 303 299 285 290 292 296 314 340 21 20 6 15 20 25 36 20 45 33 22 20 28 33 45 58 70 73 71 66 64 65
187 198 215 213 207 227 250 252 247 241 263 274 280 280 281 286 298 293 285 292 314 0 9 8 351 19 11 19 42 37 31 24 20 18 25 33 41 61 72 73 64 60 60
193 201 208 226 219 231 244 246 247 248 249 257 266 281 287 292 295 289 287 300 307 305 288 221 95 69 42 23 48 21 59 41 27 17 19 20 25 40 57 78 67 56 50
208 206 207 215 218 224 238 232 247 244 247 250 265 269 268 280 287 283 290 294 285 273 248 222 167 121 59 35 41 318 82 68 35 15 6 360 9 29 24 30 46 38 32
214 213 214 215 220 230 238 235 247 247 252 261 268 269 271 270 271 278 277 274 283 282 276 260 239 187 284 23 30 307 328 75 31 4 351 342 349 357 11 20 25 23 17
211 213 217 219 222 224 228 235 249 256 243 239 264 267 268 265 264 265 263 267 273 279 283 300 289 275 268 266 317 296 324 132 217 256 297 319 341 326 308 309 317 337 344
212 213 219 223 223 227 223 220 236 240 244 238 238 253 262 272 262 251 254 257 259 265 268 277 276 258 249 256 251 274 264 253 209 183 209 254 293 310 283 260 246 258 275
218 220 221 227 228 234 232 228 232 237 242 248 248 254 265 265 266 263 257 254 256 259 262 268 262 251 259 266 271 269 257 243 256 162 192 219 239 260 269 255 237 229 234
219 220 223 231 232 236 237 238 237 242 245 251 250 251 257 256 255 257 257 259 260 256 260 259 263 265 259 253 263 269 258 255 252 198 196 208 217 237 245 246 237 228 227
223 225 228 230 231 236 239 240 240 245 248 251 248 250 254 253 256 259 256 259 260 253 247 249 251 251 253 252 256 254 256 249 254 239 222 232 221 225 228 230 231 228 223
227 228 232 234 234 236 239 240 241 244 245 251 251 252 255 266 282 274 266 258 256 253 247 249 252 253 248 243 246 251 259 262 256 247 242 233 227 230 214 212 216 222 226
226 230 234 235 233 234 227 234 250 248 246 249 252 251 248 242 249 254 264 270 266 255 253 250 252 254 255 250 252 254 254 256 258 228 256 256 247 246 240 233 185 200 218
225 230 234 237 237 233 218 221 236 251 251 253 255 253 250 250 242 240 232 236 248 262 272 270 264 263 262 258 247 249 253 259 269 256 255 253 242 247 242 219 181 206 220
227 234 236 239 242 239 226 226 231 244 249 249 250 254 252 248 244 259 254 245 242 237 243 254 265 270 270 269 253 255 261 261 267 248 246 262 254 254 253 238 186 202 219
232 234 236 239 241 237 222 226 233 242 246 245 244 249 256 253 269 269 259 257 259 255 236 257 278 289 307 301 282 251 245 245 252 241 226 255 259 262 258 248 200 188 212
231 235 237 240 242 246 217 221 240 243 245 243 240 241 254 269 261 248 253 259 264 268 257 233 238 242 247 235 233 242 240 244 259 251 209 239 251 255 255 234 232 216 210